Date String (YYYY-MM-DD hh:mm:ss) UTC,Instrument flags,Ambient pressure (hPa),Sample flow (lpm),Bypass flow (lpm),Sample temperature (°C),Ambient temperature (°C),ASC tube jacket temperature (°C),LED temperature (°C),Box temperature (°C),Sample RH (%),Span deviation,Mass concentration (μg/m³),Mass concentration (μg/m³),Mass concentration (μg/m³)
DateTimeUTC,F1_M11,P_M11,Q1_M11,Q2_M11,T1_M11,T2_M11,T3_M11,T4_M11,T5_M11,U1_M11,ZSPAN_M11,X0_M11,X2_M11,X1_M11
2023-04-25 05:00:00,,0823.1,4.99,0.00,27.7,26.2,00.0,36.1,29.3,12.6,0000.0,0008.33,0004.56,0003.84
2023-04-25 05:01:00,,0823.0,5.02,0.00,27.7,26.2,00.0,36.1,29.3,12.5,0000.0,0008.17,0004.53,0003.83
2023-04-25 05:02:00,,0823.1,5.01,0.00,27.7,26.1,00.0,36.1,29.2,13.0,0000.0,0008.22,0004.53,0003.82
2023-04-25 05:03:00,,0823.2,4.99,0.00,27.7,26.1,00.0,36.1,29.2,13.2,0000.0,0008.26,0004.53,0003.82
2023-04-25 05:04:00,,0823.1,5.00,0.00,27.6,26.1,00.0,36.1,29.2,13.4,0000.0,0008.29,0004.52,0003.82
2023-04-25 05:05:00,,0823.2,5.01,0.00,27.6,26.0,00.0,36.1,29.2,13.6,0000.0,0008.29,0004.51,0003.83
2023-04-25 05:06:00,,0823.2,4.99,0.00,27.6,26.0,00.0,36.1,29.2,13.6,0000.0,0007.90,0004.50,0003.83
2023-04-25 05:07:00,,0822.8,4.99,0.00,27.6,26.0,00.0,36.0,29.2,13.3,0000.0,0007.66,0004.46,0003.83
2023-04-25 05:08:00,,0822.7,5.02,0.00,27.6,26.0,00.0,36.1,29.2,13.2,0000.0,0007.60,0004.45,0003.84
2023-04-25 05:09:00,,0822.7,5.00,0.00,27.6,26.0,00.0,36.0,29.2,13.0,0000.0,0007.47,0004.42,0003.84
2023-04-25 05:10:00,,0822.8,5.00,0.00,27.6,26.1,00.0,36.0,29.2,12.9,0000.0,0007.48,0004.42,0003.83
2023-04-25 05:11:00,,0822.8,5.00,0.00,27.6,26.1,00.0,36.0,29.2,12.7,0000.0,0007.61,0004.45,0003.83
2023-04-25 05:12:00,,0822.8,5.00,0.00,27.6,26.1,00.0,36.0,29.2,12.6,0000.0,0007.77,0004.51,0003.84
2023-04-25 05:13:00,,0822.7,5.00,0.00,27.6,26.2,00.0,36.0,29.2,12.8,0000.0,0007.76,0004.50,0003.85
2023-04-25 05:14:00,,0822.7,5.02,0.00,27.6,26.2,00.0,36.0,29.1,12.8,0000.0,0007.69,0004.47,0003.86
2023-04-25 05:15:00,,0822.8,5.01,0.00,27.7,26.2,00.0,36.0,29.2,12.8,0000.0,0008.03,0004.46,0003.86
2023-04-25 05:16:00,,0822.9,4.99,0.00,27.7,26.2,00.0,36.0,29.2,12.6,0000.0,0008.31,0004.46,0003.85
2023-04-25 05:17:00,,0822.7,4.99,0.00,27.7,26.2,00.0,36.1,29.2,12.8,0000.0,0008.24,0004.42,0003.85
2023-04-25 05:18:00,,0822.8,5.01,0.00,27.7,26.3,00.0,36.1,29.2,12.7,0000.0,0008.27,0004.42,0003.85
2023-04-25 05:19:00,,0822.6,5.02,0.00,27.7,26.3,00.0,36.1,29.2,12.5,0000.0,0008.24,0004.41,0003.85
2023-04-25 05:20:00,,0822.9,4.99,0.00,27.7,26.3,00.0,36.1,29.2,12.5,0000.0,0008.26,0004.41,0003.83
2023-04-25 05:21:00,,0822.6,5.00,0.00,27.7,26.3,00.0,36.1,29.2,12.5,0000.0,0008.29,0004.41,0003.83
2023-04-25 05:22:00,,0822.6,5.00,0.00,27.7,26.3,00.0,36.1,29.3,12.5,0000.0,0008.33,0004.42,0003.83
2023-04-25 05:23:00,,0822.6,4.99,0.00,27.7,26.3,00.0,36.1,29.2,12.4,0000.0,0008.26,0004.39,0003.84
2023-04-25 05:24:00,,0822.7,5.00,0.00,27.7,26.3,00.0,36.1,29.2,12.3,0000.0,0008.26,0004.39,0003.84
2023-04-25 05:25:00,,0822.7,5.00,0.00,27.7,26.3,00.0,36.1,29.2,12.6,0000.0,0008.28,0004.39,0003.82
2023-04-25 05:26:00,,0822.7,5.00,0.00,27.7,26.4,00.0,36.1,29.3,12.5,0000.0,0008.00,0004.39,0003.80
2023-04-25 05:27:00,,0822.6,5.00,0.00,27.8,26.4,00.0,36.1,29.3,12.3,0000.0,0007.66,0004.38,0003.80
2023-04-25 05:28:00,,0822.6,5.01,0.00,27.8,26.4,00.0,36.1,29.3,12.2,0000.0,0007.76,0004.41,0003.80
2023-04-25 05:29:00,,0822.7,5.00,0.00,27.8,26.4,00.0,36.1,29.3,12.0,0000.0,0007.78,0004.42,0003.80
2023-04-25 05:30:00,,0822.7,5.00,0.00,27.8,26.4,00.0,36.1,29.3,12.1,0000.0,0007.79,0004.40,0003.79
2023-04-25 05:31:00,,0822.7,5.00,0.00,27.8,26.4,00.0,36.1,29.3,12.1,0000.0,0007.79,0004.39,0003.79
2023-04-25 05:32:00,,0822.7,5.00,0.00,27.8,26.4,00.0,36.1,29.3,12.0,0000.0,0007.72,0004.37,0003.79
2023-04-25 05:33:00,,0822.8,5.00,0.00,27.8,26.3,00.0,36.1,29.3,12.0,0000.0,0007.76,0004.37,0003.79
2023-04-25 05:34:00,,0822.7,5.00,0.00,27.8,26.3,00.0,36.2,29.4,12.0,0000.0,0007.72,0004.35,0003.79
2023-04-25 05:35:00,,0823.1,4.99,0.00,27.8,26.3,00.0,36.2,29.4,12.2,0000.0,0007.69,0004.34,0003.78
2023-04-25 05:36:00,,0823.1,5.00,0.00,27.8,26.2,00.0,36.2,29.4,13.4,0000.0,0008.13,0004.34,0003.78
2023-04-25 05:37:00,,0822.7,5.01,0.00,27.7,26.1,00.0,36.2,29.3,13.9,0000.0,0008.18,0004.32,0003.80
2023-04-25 05:38:00,,0823.0,5.01,0.00,27.7,26.1,00.0,36.1,29.3,14.0,0000.0,0008.13,0004.33,0003.82
2023-04-25 05:39:00,,0823.3,4.99,0.00,27.7,26.0,00.0,36.1,29.3,13.4,0000.0,0008.09,0004.35,0003.82
2023-04-25 05:40:00,,0822.9,4.99,0.00,27.7,26.0,00.0,36.1,29.3,13.5,0000.0,0008.21,0004.34,0003.82
2023-04-25 05:41:00,,0822.9,5.00,0.00,27.7,26.0,00.0,36.1,29.2,14.0,0000.0,0008.63,0004.39,0003.85
2023-04-25 05:42:00,,0822.9,5.00,0.00,27.6,25.9,00.0,36.1,29.2,14.4,0000.0,0008.71,0004.43,0003.88
2023-04-25 05:43:00,,0823.0,5.00,0.00,27.6,25.9,00.0,36.1,29.1,14.2,0000.0,0008.83,0004.45,0003.90
2023-04-25 05:44:00,,0822.8,4.99,0.00,27.6,25.8,00.0,36.1,29.1,14.1,0000.0,0008.99,0004.44,0003.90
2023-04-25 05:45:00,,0822.9,4.99,0.00,27.5,25.7,00.0,36.1,29.0,14.2,0000.0,0009.05,0004.45,0003.91
2023-04-25 05:46:00,,0822.8,5.01,0.00,27.5,25.6,00.0,36.0,29.0,14.2,0000.0,0009.12,0004.44,0003.92
2023-04-25 05:47:00,,0822.9,5.01,0.00,27.5,25.6,00.0,36.0,29.0,14.2,0000.0,0008.77,0004.47,0003.92
2023-04-25 05:48:00,,0822.8,4.99,0.00,27.5,25.6,00.0,36.0,29.0,14.1,0000.0,0008.75,0004.48,0003.90
2023-04-25 05:49:00,,0822.9,5.00,0.00,27.4,25.6,00.0,36.0,29.0,14.1,0000.0,0008.90,0004.51,0003.89
2023-04-25 05:50:00,,0822.8,5.01,0.00,27.4,25.5,00.0,36.0,28.9,14.2,0000.0,0009.05,0004.50,0003.89
2023-04-25 05:51:00,,0823.0,5.00,0.00,27.4,25.5,00.0,36.0,28.9,14.2,0000.0,0008.97,0004.50,0003.89
2023-04-25 05:52:00,,0823.1,4.99,0.00,27.3,25.4,00.0,35.9,28.8,14.3,0000.0,0008.58,0004.49,0003.89
2023-04-25 05:53:00,,0823.0,5.00,0.00,27.3,25.4,00.0,35.9,28.8,14.3,0000.0,0008.50,0004.47,0003.87
2023-04-25 05:54:00,,0823.2,5.01,0.00,27.3,25.4,00.0,35.9,28.8,14.2,0000.0,0008.40,0004.44,0003.84
2023-04-25 05:55:00,,0822.9,5.02,0.00,27.3,25.3,00.0,35.9,28.7,13.9,0000.0,0008.24,0004.45,0003.82
2023-04-25 05:56:00,,0822.7,5.00,0.00,27.2,25.3,00.0,35.9,28.7,14.3,0000.0,0008.03,0004.43,0003.82
2023-04-25 05:57:00,,0822.7,4.99,0.00,27.2,25.3,00.0,35.8,28.7,14.4,0000.0,0008.01,0004.44,0003.81
2023-04-25 05:58:00,,0822.8,5.00,0.00,27.2,25.2,00.0,35.8,28.7,14.3,0000.0,0007.87,0004.43,0003.80
2023-04-25 05:59:00,,0823.0,5.01,0.00,27.2,25.2,00.0,35.8,28.6,14.1,0000.0,0007.82,0004.41,0003.79
